"Pseudo-MPEC" for P10Gxwz

Created 2018 Feb 19 17:18:10 UT using Find_Orb

Astrometry:
     P10Gxwz  C2018 02 12mZAstrometryE8`h*H!bd(!*QK8sI22)i\bV=^60r\I2$-ZZJ[DRF51
     P10Gxwz  C2018 02 126(];tVd-BGI1]1gI$1v:4.ruiRyJQQ:YhUTDta@AdQ%O?YRwjN7XF51
     P10Gxwz  C2018 02 12]/.L-Pm_DL'SZLMuFI_x(h=aA:,I+,nL20Z#s`*:dA`MjyKrhB4cF51
     P10Gxwz |C2018 02 176@2u^si1+TEH1b;ryredacted;D@hsQ;aMO$cIk^-d'rI[=Km54b807
     P10Gxwz |C2018 02 17bjBa4bAW\Lrwy!VJGW1[*Zq!`ktSdInSe50!a\y:]UV-V0gkH!Ja807
     P10Gxwz |C2018 02 17Zo[;HdpS)+=+Fy^`\miIL-jq0k44-n)Bsee/QBM!O1,l,kTlM!bp807
     P10Gxwz |C2018 02 19$4$n+h9?Fh+CQ6e%7;jw-`)S:uZo]QsK/A0wZ*y[r^X#tC\e8LbF807
     P10Gxwz |C2018 02 192kS@3uWdn\Mil$$P#9H;q5:bS5S!a`([s#88LNe;ujsKG2Nc)TRx807
     P10Gxwz |C2018 02 19p-++I^a1DilqF_/r3Ohbsa4@tb]Wp6UfC`LFD3WB$:Hc#uPNEOCP807

Station data:
(807) Cerro Tololo Observatory, La Serena  (S30.169133 W70.805900)  Chile.
   Observers M. Holman, J. Kavelaars, T. Grav, W. Fraser. Measurer M. Holman.
   4-m Blanco reflector + CCD.
(F51) Pan-STARRS 1, Haleakala  (N20.707234 W156.255910)  US/Hawaii.
   Observers N. Primak, A. Schultz, S. Watters, J. Thiel, T. Goggia. Measurer
   PS1 Science Consortium. 1.8-m Ritchey-Chrétien + CCD.

Orbital elements:  P10Gxwz
   Perihelion 2018 Mar 13.318426 +/- 16.1 TT =  7:38:32 (JD 2458190.818426)
Epoch 2018 Feb 19.0 TT = JDT 2458168.5   Earth MOID: 0.3961   Ma: 0.0161
M 353.43558 +/- 5.8                 (J2000 ecliptic)          AutoNEOCP
n   0.29412513 +/- 0.0327           Peri.   84.09353 +/- 27
a   2.23931208 +/- 0.166            Node    78.24280 +/- 13
e   0.3814239 +/- 0.00474           Incl.    2.16361 +/- 0.42
P   3.35                   H 22.1   G  0.15   U 10.5  
q 1.38518476 +/- 0.106    Q 3.09343939 +/- 0.209
From 9 observations 2018 Feb. 12-19; mean residual 0".19
Residuals in arcseconds: 
180212 F51  .15-  .00     180217 807  .54+  .24+    180219 807  .06-  .03+    
180212 F51  .08-  .06-    180217 807  .03-  .18+    180219 807  .05-  .03-    
180212 F51  .19+  .02+    180217 807  .34-  .25-    180219 807  .02-  .11-    

Ephemerides (geocentric):
Date (UTC) HH   RA              Dec         delta   r     elong  mag " sig PA
---- -- -- --  ------------   ------------  ------ ------ -----  --- ---- ---
2018 02 19 17  09 31 48.410   +21 45 34.89  .41909 1.3988 165.8 21.6  5.6 174
2018 02 19 18  09 31 47.932   +21 45 41.87  .41908 1.3987 165.8 21.6  5.7 174
2018 02 19 19  09 31 47.456   +21 45 48.81  .41907 1.3987 165.8 21.6  5.7 174
2018 02 19 20  09 31 46.982   +21 45 55.73  .41906 1.3986 165.7 21.6  5.8 174
2018 02 19 21  09 31 46.510   +21 46 02.62  .41905 1.3986 165.7 21.6  5.8 174
2018 02 19 22  09 31 46.040   +21 46 09.48  .41904 1.3985 165.6 21.6  5.9 174
2018 02 19 23  09 31 45.572   +21 46 16.31  .41903 1.3985 165.6 21.6  6.0 174
2018 02 20 00  09 31 45.106   +21 46 23.11  .41902 1.3984 165.6 21.6  6.0 174
2018 02 20 01  09 31 44.643   +21 46 29.87  .41901 1.3984 165.5 21.6  6.1 174
2018 02 20 02  09 31 44.181   +21 46 36.61  .41901 1.3983 165.5 21.6  6.2 174
2018 02 20 03  09 31 43.722   +21 46 43.32  .41900 1.3983 165.4 21.6  6.2 174
2018 02 20 04  09 31 43.265   +21 46 50.00  .41899 1.3982 165.4 21.6  6.3 174
2018 02 20 05  09 31 42.810   +21 46 56.64  .41898 1.3982 165.4 21.6  6.4 173
2018 02 20 06  09 31 42.357   +21 47 03.26  .41897 1.3981 165.3 21.6  6.4 173
2018 02 20 07  09 31 41.906   +21 47 09.85  .41897 1.3981 165.3 21.6  6.5 173
2018 02 20 08  09 31 41.458   +21 47 16.40  .41896 1.3980 165.3 21.6  6.6 173
2018 02 20 09  09 31 41.011   +21 47 22.93  .41895 1.3980 165.2 21.6  6.7 173
2018 02 20 10  09 31 40.567   +21 47 29.42  .41894 1.3979 165.2 21.6  6.7 173
2018 02 20 11  09 31 40.126   +21 47 35.89  .41894 1.3979 165.1 21.6  6.8 173
2018 02 20 12  09 31 39.686   +21 47 42.32  .41893 1.3978 165.1 21.6  6.9 173
2018 02 20 13  09 31 39.249   +21 47 48.72  .41893 1.3978 165.1 21.6  7.0 172
2018 02 20 14  09 31 38.814   +21 47 55.09  .41892 1.3977 165.0 21.6  7.1 172
2018 02 20 15  09 31 38.381   +21 48 01.44  .41892 1.3977 165.0 21.6  7.2 172
2018 02 20 16  09 31 37.950   +21 48 07.75  .41891 1.3976 164.9 21.6  7.2 172
2018 02 20 17  09 31 37.522   +21 48 14.02  .41891 1.3976 164.9 21.6  7.3 172
2018 02 20 18  09 31 37.096   +21 48 20.27  .41890 1.3975 164.9 21.6  7.4 171
2018 02 20 19  09 31 36.672   +21 48 26.49  .41890 1.3975 164.8 21.6  7.5 171
2018 02 20 20  09 31 36.251   +21 48 32.68  .41889 1.3974 164.8 21.6  7.6 171
2018 02 20 21  09 31 35.832   +21 48 38.83  .41889 1.3974 164.7 21.6  7.7 171
2018 02 20 22  09 31 35.415   +21 48 44.96  .41888 1.3973 164.7 21.6  7.8 171
2018 02 20 23  09 31 35.001   +21 48 51.05  .41888 1.3973 164.7 21.6  7.9 170
2018 02 21 00  09 31 34.589   +21 48 57.11  .41888 1.3972 164.6 21.6  8.0 170
2018 02 21 01  09 31 34.179   +21 49 03.14  .41887 1.3972 164.6 21.6  8.1 170
2018 02 21 02  09 31 33.772   +21 49 09.14  .41887 1.3971 164.5 21.6  8.2 170
2018 02 21 03  09 31 33.367   +21 49 15.11  .41887 1.3971 164.5 21.6  8.3 170
2018 02 21 04  09 31 32.965   +21 49 21.04  .41887 1.3970 164.5 21.6  8.4 169
2018 02 21 05  09 31 32.564   +21 49 26.95  .41887 1.3970 164.4 21.6  8.5 169
2018 02 21 06  09 31 32.167   +21 49 32.82  .41886 1.3969 164.4 21.6  8.6 169
2018 02 21 07  09 31 31.771   +21 49 38.67  .41886 1.3969 164.3 21.6  8.7 169
2018 02 21 08  09 31 31.378   +21 49 44.48  .41886 1.3968 164.3 21.6  8.9 168
2018 02 21 09  09 31 30.988   +21 49 50.26  .41886 1.3968 164.3 21.6  9.0 168
2018 02 21 10  09 31 30.600   +21 49 56.00  .41886 1.3967 164.2 21.6  9.1 168
2018 02 21 11  09 31 30.214   +21 50 01.72  .41886 1.3967 164.2 21.7  9.2 168
2018 02 21 12  09 31 29.831   +21 50 07.40  .41886 1.3966 164.1 21.7  9.3 167
2018 02 21 13  09 31 29.451   +21 50 13.05  .41886 1.3966 164.1 21.7  9.5 167
2018 02 21 14  09 31 29.072   +21 50 18.67  .41886 1.3966 164.1 21.7  9.6 167
2018 02 21 15  09 31 28.697   +21 50 24.26  .41886 1.3965 164.0 21.7  9.7 166
2018 02 21 16  09 31 28.324   +21 50 29.82  .41886 1.3965 164.0 21.7  9.9 166